Regional Weather Roundup
Issued by NWS Upton, NY

Current Version | Previous Version | Text Only | Print | Product List | Glossary On
Versions: 1 2 3 4 5 6 7 8 9 10 11 12 13 14 15 16 17 18 19 20 21 22 23 24 25 26 27 28 29 30 31 32 33 34 35 36 37 38 39 40 41 42 43 44 45 46 47 48 49 50
000
ASUS41 KOKX 051118
RWROKX

REGIONAL WEATHER ROUNDUP
NATIONAL WEATHER SERVICE NEW YORK NY
700 AM EDT SUN JUL 05 2015

NOTE: "FAIR" INDICATES FEW OR NO CLOUDS BELOW 12,000 FEET WITH NO
SIGNIFICANT WEATHER AND/OR OBSTRUCTIONS TO VISIBILITY.

NYZ071-072-176-178-NJZ106-104-051200-
NEW YORK CITY METRO AREA


CITY           SKY/WX    TMP DP  RH WIND       PRES   REMARKS
CENTRAL PARK   MOSUNNY   70  59  68 MISG      30.11R
LAGUARDIA APRT PTSUNNY   70  60  70 NW9       30.08R
KENNEDY INTL   PTSUNNY   73  59  61 W6        30.09R
NEWARK/LIBERTY PTSUNNY   70  62  76 W6        30.08R
BRNX BOT. GARD   N/A     68  59  73 SW2       30.12R
TETERBORO      MOSUNNY   69  60  73 CALM      30.07R
$$

NYZ177-179-078>081-051200-
LONG ISLAND NEW YORK

CITY           SKY/WX    TMP DP  RH WIND       PRES   REMARKS
FARMINGDALE    MOSUNNY   68  62  81 CALM      30.08R
ISLIP          PTSUNNY   67  61  81 NW5       30.07R
SHIRLEY        SUNNY     66  60  81 W3        30.09R
WESTHAMPTON    SUNNY     62  59  90 CALM      30.10R
MONTAUK POINT    N/A     67  63  87 NW3       30.09R
$$

NYZ052-065-067-051200-
HUDSON VALLEY

CITY           SKY/WX    TMP DP  RH WIND       PRES   REMARKS
WHITE PLAINS   SUNNY     64  61  90 NW3       30.08R FOG
NEWBURGH       SUNNY     59  59 100 CALM      30.08S
MONTGOMERY     SUNNY     61  60  97 SW5       30.08S FOG
POUGHKEEPSIE   MOSUNNY   59  56  89 CALM      30.08R FOG
ALBANY         SUNNY     61  58  90 S5        30.08R FOG
$$

NJZ001-105-106-008-010-013-015-019>022-104-051200-
NEW JERSEY

CITY           SKY/WX    TMP DP  RH WIND       PRES   REMARKS
NEWARK/LIBERTY PTSUNNY   70  62  76 W6        30.08R
TETERBORO      MOSUNNY   69  60  73 CALM      30.07R
CALDWELL       MOSUNNY   64  59  83 CALM      30.10R
MORRISTOWN     PTSUNNY   64  64 100 CALM      30.09R
SOMERVILLE     MOSUNNY   63  60  90 CALM      30.08R
SUSSEX         SUNNY     58  57  97 CALM      30.11R FOG
ANDOVER          N/A     60  60 100 CALM      30.11R
TRENTON        MOSUNNY   67  61  81 NW5       30.09R
MILLVILLE      MOSUNNY   66  62  87 CALM      30.11R
ATLANTIC CITY  MOSUNNY   67  62  84 CALM      30.10R
WRIGHTSTOWN    MOSUNNY   67  62  82 SW1       30.08R
TOMS RIVER     SUNNY     66  61  82 CALM      30.10R
BELMAR         SUNNY     66  57  72 CALM      30.10R
$$

PAZ047>061-062-071-051200-
EASTERN PENNSYLVANIA

CITY           SKY/WX    TMP DP  RH WIND       PRES   REMARKS
PHILADELPHIA   PTSUNNY   69  61  75 CALM      30.11R
ALLENTOWN      MOSUNNY   63  61  93 CALM      30.11R FOG
SCRANTON       CLOUDY    63  60  90 SW5       30.12R FOG
$$

CTZ002-004>006-009-010-012-RIZ004-006-007-MAZ004-011-015-051200-
SOUTHERN NEW ENGLAND
 IN CT

CITY           SKY/WX    TMP DP  RH WIND       PRES   REMARKS
BRADLEY INTL   SUNNY     60  57  89 SW3       30.06R FOG
HARTFORD       SUNNY     61  58  90 S3        30.07R FOG
DANBURY        MOSUNNY   59  55  87 CALM      30.10R FOG
WTRBRY/OXFORD  SUNNY     61  54  77 CALM      30.10R HAZE
BRIDGEPORT     SUNNY     66  61  84 W5        30.07R
MERIDEN        SUNNY     59  56  89 CALM      30.08R FOG
NEW HAVEN      SUNNY     64  62  93 CALM      30.08R
CHESTER        FAIR      64  59  82 NW5       30.09R
GROTON         SUNNY     64  58  80 CALM      30.06R
WILLIMANTIC    CLOUDY    57  56  96 CALM      30.08R FOG

 IN RI

CITY           SKY/WX    TMP DP  RH WIND       PRES   REMARKS
PROVIDENCE     SUNNY     63  57  81 W8        30.05R
BLOCK ISLAND   SUNNY     64  57  77 W8        30.07R
WESTERLY       SUNNY     61  57  87 CALM      30.07R

 IN MA

CITY           SKY/WX    TMP DP  RH WIND       PRES   REMARKS
BOSTON         MOSUNNY   64  58  80 W8        30.04R
WORCESTER      SUNNY     62  56  80 W13       30.07R
WESTFIELD      SUNNY     57  56  96 CALM      30.07R FOG
PROVINCETOWN   SUNNY     61   5  11 W9        30.04R
NANTUCKET      SUNNY     65  59  81 W8        30.06R
$$

ANZ330-335-338-340-345-350-353-355-051200-
COASTAL MARINE OBSERVATIONS


STATION/POSITION TIME  SKY/WX   TEMP    WIND        PRES    VSBY  WAVE
                                AIR SEA DIR/SP/G                  HT/PER
                 (UTC)          (F)     (DEG/KT/KT) (MB)    (MI)  (FT/S)
NY HARB ENTRANCE 1050            69 69  280/  4/  6 1018.3          4/ 8
4S FIRE IS       1003               70                N/A           4/ 8
20S FIRE ISLAND  1050            69 69  270/  4/  6 1018.4          5/ 8
GREAT SOUTH BAY  1030            69 74  310/  6/  8   N/A
23SW MTP         1050            68 68  270/  8/ 10 1018.1          4/ 8
HUDSON CANYON    NOT AVBL
KINGS POINT      1000            67 66     CALM     1017.5
CENTRAL LI SOUND NOT AVBL
EASTERN LI SOUND 1000            64 63  290/  4/  6   N/A
ROBBINS REEF     1000            70     300/  5/  5 1017.2
$$


>>>>>>>>>>>>>>>>>>>>>>>>>>>> KEY <<<<<<<<<<<<<<<<<<<<<<<<<<<
>                                                          <
>     SKY/WX - SKY CONDITION/PRESENT WEATHER               <
>     TMP    - TEMPERATURE IN FAHRENHEIT                   <
>     DP     - DEWPOINT IN FAHRENHEIT                      <
>     RH     - RELATIVE HUMIDITY IN PERCENT                <
>     WIND   - DIRECTION AND SPEED IN MPH                  <
>     PRES   - MEAN SEA LEVEL PRESSURE IN INCHES OF HG     <
>     WCI    - WIND CHILL INDEX                            <
>     VSB    - VISIBILITY IN MILES                         <
>     HX     - HEAT INDEX                                  <
>     TC     - TEMPERATURE IN CELSIUS                      <
>     VRB    - VARIABLE WIND DIRECTION                     <
>                                                          <
>>>>>>>>>>>>>>>>>>>>>>>>>>>> KEY <<<<<<<<<<<<<<<<<<<<<<<<<<<





USA.gov is the U.S. government's official web portal to all federal, state and local government web resources and services.